Location: Sperry Observatory
(40.6664°N, 74.3236°W)
Time: 03:52:45
(UTC-05:00)

Amateur Radio Satellites - All Passes

Search period start: 03 March 2015 03:22
Search period end: 04 March 2015 03:22
Location: Sperry Observatory, 40.6664°N, 74.3236°W

Satellite Date Start Highest point End Downlink Frequencies (MHz)
Time Altitude Azimuth
AO-7 03 Mar 03:26:48 03:34:20 38° 97° (E) 03:41:57 29.400- 29.500
ITAMSAT 1 03 Mar 03:26:58 03:31:25 28° 293° (WNW) 03:35:45 435.822/435.867
MOZHAYETS 4 03 Mar 03:30:36 03:34:56 45° 72° (ENE) 03:39:19
PCSat 03 Mar 03:58:54 04:02:05 16° 41° (NE) 04:05:25 145.827
AIST 2 03 Mar 04:10:56 04:12:47 12° 251° (WSW) 04:14:26 435.215
HORYU 2 03 Mar 04:12:26 04:16:34 37° 289° (WNW) 04:20:40 437.375
RS-15 03 Mar 04:29:22 04:37:07 21° 9° (N) 04:45:12 29.354- 29.394
PRISM 03 Mar 04:31:37 04:34:01 15° 65° (ENE) 04:36:34 437.425
M-CUBED/EXP-1 PRIME 03 Mar 04:36:29 04:36:54 10° 266° (W) 04:37:08 437.505
AUBIESAT-1 03 Mar 04:37:25 04:38:32 11° 265° (W) 04:39:29 437.475
JAS-2 03 Mar 05:02:16 05:09:38 65° 288° (WNW) 05:17:22 435.910
MOZHAYETS 4 03 Mar 05:09:24 05:12:28 17° 269° (W) 05:15:22
YUBILEINY 03 Mar 05:09:52 05:16:00 20° 280° (W) 05:21:40 435.215
Cubesat XI-IV 03 Mar 05:17:15 05:21:05 20° 91° (E) 05:25:04 437.490
AO-7 03 Mar 05:19:26 05:27:20 48° 296° (WNW) 05:35:06 29.400- 29.500
CUTE-I 03 Mar 05:25:49 05:30:03 24° 93° (E) 05:34:24 437.470
CUBESAT XI-V 03 Mar 05:30:13 05:34:51 64° 74° (ENE) 05:39:32 437.345
PCSat 03 Mar 05:40:55 05:46:23 87° 61° (ENE) 05:51:49 145.827
STRAND 1 03 Mar 05:44:52 05:49:54 58° 73° (ENE) 05:54:59 437.568
AIST 1 03 Mar 05:57:41 06:00:25 17° 87° (E) 06:03:19
PRISM 03 Mar 06:05:12 06:09:11 45° 261° (W) 06:13:13 437.425
RS-15 03 Mar 06:43:06 06:53:41 43° 41° (NE) 07:04:50 29.354- 29.394
JAS-2 03 Mar 06:50:05 06:53:37 14° 304° (WNW) 06:56:47 435.910
Cubesat XI-IV 03 Mar 06:56:20 07:01:32 50° 289° (WNW) 07:06:41 437.490
CUTE-I 03 Mar 07:05:17 07:10:22 43° 290° (WNW) 07:15:21 437.470
CUBESAT XI-V 03 Mar 07:10:37 07:12:49 13° 272° (W) 07:14:47 437.345
AO-7 03 Mar 07:16:27 07:18:17 11° 316° (NW) 07:19:38 29.400- 29.500
GONETS M04 03 Mar 07:24:21 07:31:02 25° 64° (ENE) 07:38:04
STRAND 1 03 Mar 07:26:15 07:29:34 16° 270° (W) 07:32:40 437.568
BRITE-PL 03 Mar 07:26:32 07:28:59 15° 88° (E) 07:31:34 437.365/2234.400
PCSat 03 Mar 07:27:06 07:29:08 12° 256° (WSW) 07:30:50 145.827
AIST 1 03 Mar 07:33:42 07:37:48 38° 283° (WNW) 07:41:55
ISS 03 Mar 07:34:51 07:36:54 16° 132° (SE) 07:39:02 145.825
CUTE 1.7 + AOD 2 03 Mar 07:36:19 07:37:16 11° 88° (E) 07:38:29 437.475
DOVE 4 03 Mar 08:01:23 08:03:46 15° 90° (E) 08:06:18 437.250
HO-68 03 Mar 08:04:04 08:10:26 34° 96° (E) 08:16:54 435.675
AAUSAT CUBESAT 2 03 Mar 08:16:36 08:19:33 19° 92° (E) 08:22:39 437.432
COMPASS 1 03 Mar 08:19:17 08:22:39 24° 94° (E) 08:26:05 437.405
UNISAT 6 03 Mar 08:30:04 08:31:53 13° 65° (ENE) 08:33:55 437.425
SEEDS 03 Mar 08:46:51 08:51:03 60° 101° (E) 08:55:14 437.485
QB50P2 03 Mar 08:48:10 08:49:10 11° 64° (ENE) 08:50:25 145.880/145.840
CANX-2 03 Mar 08:50:54 08:55:10 89° 97° (E) 08:59:27 2200.000
TIGRISAT 03 Mar 08:53:16 08:56:34 22° 68° (ENE) 08:59:56 435.000
RS-15 03 Mar 08:55:31 09:06:50 65° 244° (WSW) 09:18:33 29.354- 29.394
FUNcube-1 03 Mar 08:59:26 09:01:09 12° 89° (E) 09:03:04 145.935
ZACube-1 03 Mar 09:00:41 09:02:37 13° 90° (E) 09:04:46 437.345
DUCHIFAT 1 03 Mar 09:01:20 09:03:40 15° 66° (ENE) 09:06:10 145.980
BRITE-PL 03 Mar 09:03:36 09:07:59 46° 288° (WNW) 09:12:03 437.365/2234.400
GOMX 1 03 Mar 09:05:29 09:09:51 66° 285° (WNW) 09:14:00 467.674
ANTELSAT 03 Mar 09:06:35 09:10:25 30° 71° (ENE) 09:14:15 437.575/2403.000
UKube-1 03 Mar 09:07:19 09:09:37 14° 90° (E) 09:12:07 .
CUTE 1.7 + AOD 2 03 Mar 09:09:29 09:13:42 62° 285° (WNW) 09:17:54 437.475
ISS 03 Mar 09:09:54 09:13:04 53° 327° (NNW) 09:16:15 145.825
O/OREOS (USA 219) 03 Mar 09:13:19 09:17:52 81° 292° (WNW) 09:22:29 437.305
UWE-3 03 Mar 09:19:50 09:23:22 27° 95° (E) 09:26:58 435.000/436.395/437.385
GONETS M04 03 Mar 09:20:08 09:28:52 72° 266° (W) 09:37:34
DELFI C3 03 Mar 09:20:30 09:24:17 36° 97° (E) 09:28:06 145.870
POLYITAN 1 03 Mar 09:20:58 09:24:25 25° 69° (ENE) 09:27:58 437.675
POPSAT HIP 1 03 Mar 09:21:13 09:24:38 24° 69° (ENE) 09:28:10 437.405
SO-50 03 Mar 09:28:27 09:33:01 36° 49° (NE) 09:37:34 436.795
DOVE 4 03 Mar 09:37:52 09:41:54 41° 288° (WNW) 09:45:48 437.250
CINEMA 3 03 Mar 09:41:25 09:45:35 73° 285° (WNW) 09:49:43 145.822/145.860
NANOSAT C BR1 03 Mar 09:43:30 09:47:32 42° 72° (ENE) 09:51:35 145.865
Oscar 11 03 Mar 09:47:43 09:52:03 83° 284° (WNW) 09:56:23 145.826/435.025
AAUSAT CUBESAT 2 03 Mar 09:51:31 09:55:20 34° 288° (WNW) 09:59:07 437.432
HO-68 03 Mar 09:51:32 09:58:20 46° 293° (WNW) 10:05:04 435.675
COMPASS 1 03 Mar 09:54:44 09:58:22 28° 290° (WNW) 10:01:56 437.405
CUBEBUG 2 03 Mar 09:58:07 10:02:18 87° 284° (WNW) 10:06:28 437.445
UNISAT 6 03 Mar 10:03:54 10:08:17 61° 259° (W) 10:12:36 437.425
DX 1 03 Mar 10:12:58 10:17:22 84° 103° (ESE) 10:21:43 434.975-435.025
QB50P1 03 Mar 10:16:12 10:20:30 81° 256° (WSW) 10:24:49 145.935-145.965
AISAT 03 Mar 10:19:09 10:23:19 39° 98° (E) 10:27:28 437.250
QB50P2 03 Mar 10:20:17 10:24:35 72° 259° (W) 10:28:53 145.880/145.840
CUBEBUG 1 03 Mar 10:21:29 10:24:23 18° 91° (E) 10:27:25 437.445
BUGSAT 1 03 Mar 10:23:22 10:27:39 89° 82° (E) 10:31:57 437.445
50 SAT 03 Mar 10:24:28 10:28:14 42° 98° (E) 10:32:01 437.505
SEEDS 03 Mar 10:24:35 10:26:26 12° 295° (WNW) 10:28:05 437.485
VELOX 1 03 Mar 10:28:17 10:32:36 48° 99° (E) 10:36:53 145.980
TIGRISAT 03 Mar 10:29:11 10:33:12 33° 263° (W) 10:37:07 435.000
HUMSAT D 03 Mar 10:33:37 10:37:44 83° 102° (ESE) 10:41:52 437.325/437.525
FUNcube-1 03 Mar 10:33:51 10:37:53 50° 286° (WNW) 10:41:55 145.935
DUCHIFAT 1 03 Mar 10:34:59 10:39:09 50° 260° (W) 10:43:20 145.980
ZACube-1 03 Mar 10:35:21 10:39:21 47° 287° (WNW) 10:43:22 437.345
UKube-1 03 Mar 10:41:55 10:46:08 49° 287° (WNW) 10:50:18 .
ANTELSAT 03 Mar 10:43:43 10:47:16 23° 266° (W) 10:50:42 437.575/2403.000
DANDE 03 Mar 10:46:09 10:48:45 46° 78° (ENE) 10:51:17 436.750
ESTCUBE 1 03 Mar 10:46:12 10:50:25 36° 97° (E) 10:54:38 437.505/2401.250
ISS 03 Mar 10:48:04 10:50:04 15° 346° (NNW) 10:52:03 145.825
DELFI C3 03 Mar 10:56:27 10:59:16 18° 292° (WNW) 11:01:58 145.870
UWE-3 03 Mar 10:56:29 10:59:51 23° 291° (WNW) 11:03:09 435.000/436.395/437.385
POLYITAN 1 03 Mar 10:56:32 11:00:17 28° 265° (W) 11:03:59 437.675
POPSAT HIP 1 03 Mar 10:56:42 11:00:27 29° 264° (W) 11:04:11 437.405
SO-50 03 Mar 11:09:10 11:13:30 30° 246° (WSW) 11:17:44 436.795
CUSAT 1 03 Mar 11:12:15 11:14:38 33° 264° (W) 11:17:06 437.405
RS-15 03 Mar 11:12:43 11:17:30 12° 262° (W) 11:21:07 29.354- 29.394
GONETS M04 03 Mar 11:20:48 11:24:20 12° 284° (WNW) 11:27:10
NANOSAT C BR1 03 Mar 11:20:51 11:23:38 16° 269° (W) 11:26:16 145.865
Oscar 19 03 Mar 11:27:27 11:30:59 20° 65° (ENE) 11:34:40 437.125/150
AISAT 03 Mar 11:56:26 11:59:42 20° 293° (WNW) 12:02:49 437.250
CUBEBUG 1 03 Mar 11:56:50 12:01:01 41° 288° (WNW) 12:05:06 437.445
50 SAT 03 Mar 12:00:40 12:02:56 15° 293° (WNW) 12:05:03 437.505
VELOX 1 03 Mar 12:05:57 12:08:50 17° 295° (WNW) 12:11:33 145.980
ESTCUBE 1 03 Mar 12:23:34 12:27:06 22° 293° (WNW) 12:30:31 437.505/2401.250
SWISSCUBE 03 Mar 12:25:26 12:28:10 15° 90° (E) 12:31:07 437.505
ISS 03 Mar 12:26:00 12:27:31 13° 7° (N) 12:29:02 145.825
SPROUT 03 Mar 12:26:05 12:30:24 76° 285° (WNW) 12:34:40 437.525
TISAT 1 03 Mar 12:27:33 12:31:48 82° 284° (WNW) 12:35:59 437.305
BEESAT 03 Mar 12:33:39 12:36:44 17° 91° (E) 12:39:59 436.000
AO-7 03 Mar 12:39:52 12:42:04 12° 45° (NE) 12:44:47 29.400- 29.500
Gurwin Techsat 1B 03 Mar 12:42:15 12:46:29 25° 66° (ENE) 12:50:49 435.225
ITUPSAT 1 03 Mar 13:00:36 13:04:54 32° 96° (E) 13:09:13 437.325
ITAMSAT 1 03 Mar 13:04:47 13:09:50 53° 72° (ENE) 13:14:57 435.822/435.867
Oscar 19 03 Mar 13:04:58 13:09:59 52° 260° (W) 13:15:01 437.125/150
HORYU 2 03 Mar 13:35:12 13:38:12 19° 66° (ENE) 13:41:21 437.375
SWISSCUBE 03 Mar 14:01:44 14:06:28 55° 287° (WNW) 14:11:09 437.505
ISS 03 Mar 14:01:51 14:04:44 29° 26° (NNE) 14:07:38 145.825
KKS-1 03 Mar 14:09:06 14:13:04 31° 96° (E) 14:17:02 437.445
BEESAT 03 Mar 14:10:16 14:14:56 49° 288° (WNW) 14:19:32 436.000
STARS 03 Mar 14:14:02 14:17:27 23° 94° (E) 14:20:58 437.465
YUBILEINY 03 Mar 14:18:55 14:24:06 18° 79° (E) 14:29:47 435.215
Gurwin Techsat 1B 03 Mar 14:21:15 14:26:16 41° 262° (W) 14:31:17 435.225
AO-7 03 Mar 14:25:13 14:33:08 52° 65° (ENE) 14:41:09 29.400- 29.500
ITUPSAT 1 03 Mar 14:38:37 14:42:42 27° 292° (WNW) 14:46:42 437.325
ITAMSAT 1 03 Mar 14:46:04 14:49:44 18° 269° (W) 14:53:13 435.822/435.867
HORYU 2 03 Mar 15:10:25 15:14:38 41° 262° (W) 15:18:49 437.375
JAS-2 03 Mar 15:14:39 15:20:00 55° 71° (ENE) 15:26:01 435.910
MOZHAYETS 4 03 Mar 15:28:29 15:29:41 11° 87° (E) 15:31:12
ISS 03 Mar 15:38:12 15:41:12 35° 223° (SW) 15:44:12 145.825
KKS-1 03 Mar 15:46:01 15:49:35 24° 292° (WNW) 15:53:04 437.445
STARS 03 Mar 15:50:06 15:54:00 31° 290° (WNW) 15:57:50 437.465
BEESAT 3 03 Mar 16:00:16 16:03:20 21° 113° (ESE) 16:06:31 437.485
YUBILEINY 03 Mar 16:11:08 16:19:53 87° 278° (W) 16:28:45 435.215
M-CUBED/EXP-1 PRIME 03 Mar 16:13:55 16:18:00 41° 104° (ESE) 16:22:22 437.505
AUBIESAT-1 03 Mar 16:15:11 16:19:13 38° 103° (ESE) 16:23:32 437.475
AO-7 03 Mar 16:18:39 16:26:12 36° 263° (W) 16:33:39 29.400- 29.500
BEESAT 2 03 Mar 16:26:04 16:29:47 34° 115° (ESE) 16:33:35 435.950
AIST 2 03 Mar 16:30:07 16:32:21 15° 110° (ESE) 16:34:49 435.215
Cubesat XI-IV 03 Mar 16:38:43 16:43:26 33° 68° (ENE) 16:48:15 437.490
CUTE-I 03 Mar 16:47:11 16:52:06 39° 69° (ENE) 16:57:06 437.470
VERMONT LUNAR 03 Mar 16:51:19 16:54:27 31° 156° (SSE) 16:57:36 437.305
JAS-2 03 Mar 17:01:44 17:05:46 19° 273° (W) 17:09:52 435.910
PHONESAT 2.4 03 Mar 17:02:02 17:04:52 22° 151° (SSE) 17:07:45 2401.200-2431.200
MOZHAYETS 4 03 Mar 17:02:53 17:07:32 71° 284° (WNW) 17:12:09
CUBESAT XI-V 03 Mar 17:28:36 17:31:31 17° 90° (E) 17:34:37 437.345
BEESAT 3 03 Mar 17:37:25 17:41:14 36° 309° (NW) 17:45:05 437.485
AIST 1 03 Mar 17:40:59 17:45:16 47° 78° (ENE) 17:49:31
O/OREOS (USA 219) 03 Mar 17:45:15 17:48:35 20° 55° (NE) 17:51:59 437.305
PRISM 03 Mar 17:48:33 17:52:01 25° 95° (E) 17:55:32 437.425
M-CUBED/EXP-1 PRIME 03 Mar 17:49:32 17:52:44 20° 296° (WNW) 17:56:00 437.505
AUBIESAT-1 03 Mar 17:50:35 17:53:55 22° 296° (WNW) 17:57:20 437.475
STRAND 1 03 Mar 17:56:40 18:00:21 20° 92° (E) 18:04:09 437.568
BEESAT 2 03 Mar 18:04:37 18:08:03 24° 313° (NW) 18:11:28 435.950
AIST 2 03 Mar 18:06:23 18:10:34 55° 305° (NW) 18:14:48 435.215
YUBILEINY 03 Mar 18:12:28 18:18:18 18° 301° (WNW) 18:23:42 435.215
Cubesat XI-IV 03 Mar 18:18:46 18:23:32 32° 265° (W) 18:28:17 437.490
CUTE-I 03 Mar 18:27:47 18:32:19 27° 266° (W) 18:36:47 437.470
VERMONT LUNAR 03 Mar 18:28:39 18:32:09 81° 174° (S) 18:35:40 437.305
HO-68 03 Mar 18:33:11 18:38:44 26° 60° (ENE) 18:44:30 435.675
BRITE-PL 03 Mar 18:35:40 18:39:57 24° 68° (ENE) 18:44:14 437.365/2234.400
GOMX 1 03 Mar 18:36:48 18:39:48 16° 65° (ENE) 18:42:56 467.674
PHONESAT 2.4 03 Mar 18:39:23 18:42:59 66° 167° (SSE) 18:46:37 2401.200-2431.200
PCSat 03 Mar 18:43:37 18:44:41 11° 103° (ESE) 18:46:07 145.827
CUBESAT XI-V 03 Mar 19:04:44 19:09:19 49° 287° (WNW) 19:13:49 437.345
DOVE 4 03 Mar 19:06:11 19:09:45 20° 68° (ENE) 19:13:22 437.250
AAUSAT CUBESAT 2 03 Mar 19:08:42 19:10:38 13° 66° (ENE) 19:12:46 437.432
CINEMA 3 03 Mar 19:09:36 19:10:24 11° 64° (ENE) 19:11:28 145.822/145.860
COMPASS 1 03 Mar 19:11:25 19:13:59 17° 67° (ENE) 19:16:42 437.405
AIST 1 03 Mar 19:20:08 19:22:33 14° 274° (W) 19:24:45
PRISM 03 Mar 19:23:52 19:27:31 27° 291° (WNW) 19:31:03 437.425
O/OREOS (USA 219) 03 Mar 19:23:53 19:28:16 44° 253° (WSW) 19:32:35 437.305
STRAND 1 03 Mar 19:34:54 19:39:51 48° 289° (WNW) 19:44:45 437.568
SEEDS 03 Mar 19:38:53 19:42:46 39° 73° (ENE) 19:46:42 437.485
CANX-2 03 Mar 19:43:32 19:47:40 60° 75° (ENE) 19:51:50 2200.000
FUNcube-1 03 Mar 19:56:20 19:57:31 11° 65° (ENE) 19:58:57 145.935
ZACube-1 03 Mar 19:57:39 19:59:09 12° 65° (ENE) 20:00:52 437.345
CUTE 1.7 + AOD 2 03 Mar 20:01:53 20:06:06 89° 72° (ENE) 20:10:21 437.475
UKube-1 03 Mar 20:02:53 20:04:53 13° 64° (ENE) 20:07:04 .
VERMONT LUNAR 03 Mar 20:06:34 20:10:04 79° 191° (S) 20:13:33 437.305
DELFI C3 03 Mar 20:08:48 20:11:56 23° 69° (ENE) 20:15:09 145.870
GOMX 1 03 Mar 20:12:07 20:17:30 69° 259° (WSW) 20:22:38 467.674
BRITE-PL 03 Mar 20:12:43 20:18:12 49° 262° (W) 20:23:27 437.365/2234.400
UWE-3 03 Mar 20:17:06 20:20:35 24° 69° (ENE) 20:24:05 435.000/436.395/437.385
PHONESAT 2.4 03 Mar 20:17:47 20:21:26 88° 186° (S) 20:25:05 2401.200-2431.200
HO-68 03 Mar 20:18:55 20:26:00 63° 258° (WSW) 20:33:07 435.675
PCSat 03 Mar 20:21:59 20:27:24 87° 121° (ESE) 20:32:53 145.827
GONETS M04 03 Mar 20:25:56 20:32:42 28° 84° (E) 20:39:46
AAUSAT CUBESAT 2 03 Mar 20:41:52 20:45:55 52° 261° (W) 20:49:58 437.432
Oscar 11 03 Mar 20:42:00 20:46:17 72° 76° (ENE) 20:50:35 145.826/435.025
DOVE 4 03 Mar 20:42:16 20:47:16 48° 261° (W) 20:52:01 437.250
CINEMA 3 03 Mar 20:42:17 20:47:06 85° 257° (WSW) 20:51:42 145.822/145.860
COMPASS 1 03 Mar 20:45:29 20:49:25 41° 262° (W) 20:53:22 437.405
CUBEBUG 2 03 Mar 20:55:48 21:00:19 76° 77° (ENE) 21:04:42 437.445
DX 1 03 Mar 21:08:05 21:12:26 70° 75° (ENE) 21:16:50 434.975-435.025
RS-15 03 Mar 21:10:45 21:17:40 21° 102° (ESE) 21:25:16 29.354- 29.394
50 SAT 03 Mar 21:11:16 21:14:33 25° 70° (ENE) 21:17:52 437.505
SEEDS 03 Mar 21:16:06 21:18:49 16° 269° (W) 21:21:23 437.485
AISAT 03 Mar 21:16:53 21:20:56 35° 71° (ENE) 21:25:03 437.250
CUBEBUG 1 03 Mar 21:18:07 21:20:42 16° 65° (ENE) 21:23:26 437.445
CANX-2 03 Mar 21:22:50 21:24:06 11° 272° (W) 21:25:07 2200.000
HUMSAT D 03 Mar 21:25:12 21:29:18 55° 75° (ENE) 21:33:23 437.325/437.525
VELOX 1 03 Mar 21:25:40 21:29:53 42° 72° (ENE) 21:34:08 145.980
FUNcube-1 03 Mar 21:29:04 21:33:25 69° 259° (W) 21:37:41 145.935
ZACube-1 03 Mar 21:30:45 21:35:06 65° 259° (W) 21:39:22 437.345
UKube-1 03 Mar 21:36:17 21:40:35 60° 259° (WSW) 21:44:55 .
DELFI C3 03 Mar 21:43:34 21:47:03 27° 265° (W) 21:50:29 145.870
VERMONT LUNAR 03 Mar 21:44:41 21:47:45 29° 205° (SSW) 21:50:48 437.305
ESTCUBE 1 03 Mar 21:45:44 21:49:46 33° 70° (ENE) 21:53:52 437.505/2401.250
UWE-3 03 Mar 21:53:05 21:57:02 30° 264° (W) 22:00:52 435.000/436.395/437.385
PHONESAT 2.4 03 Mar 21:56:18 21:59:47 44° 200° (SSW) 22:03:14 2401.200-2431.200
UNISAT 6 03 Mar 21:56:34 22:00:09 26° 95° (E) 22:03:51 437.425
QB50P1 03 Mar 22:03:06 22:05:44 16° 91° (E) 22:08:30 145.935-145.965
QB50P2 03 Mar 22:07:06 22:10:03 19° 92° (E) 22:13:06 145.880/145.840
BUGSAT 1 03 Mar 22:08:03 22:09:57 13° 90° (E) 22:12:02 437.445
PCSat 03 Mar 22:08:08 22:11:38 17° 319° (NW) 22:14:59 145.827
DANDE 03 Mar 22:17:05 22:19:06 12° 91° (E) 22:21:21 436.750
GONETS M04 03 Mar 22:20:25 22:29:01 62° 282° (WNW) 22:37:37
TIGRISAT 03 Mar 22:20:41 22:24:50 47° 99° (E) 22:29:02 435.000
DUCHIFAT 1 03 Mar 22:20:44 22:24:14 25° 95° (E) 22:27:45 145.980
ANTELSAT 03 Mar 22:34:51 22:39:09 72° 102° (ESE) 22:43:30 437.575/2403.000
CUSAT 1 03 Mar 22:37:34 22:42:02 22° 95° (E) 22:45:53 437.405
POPSAT HIP 1 03 Mar 22:41:52 22:45:56 45° 99° (E) 22:49:58 437.405
POLYITAN 1 03 Mar 22:41:57 22:46:02 46° 99° (E) 22:50:05 437.675
50 SAT 03 Mar 22:46:18 22:49:32 23° 266° (W) 22:52:42 437.505
DX 1 03 Mar 22:48:27 22:49:16 10° 272° (W) 22:49:47 434.975-435.025
CUBEBUG 1 03 Mar 22:52:22 22:56:42 51° 261° (W) 23:01:04 437.445
AISAT 03 Mar 22:54:09 22:57:40 22° 267° (W) 23:01:06 437.250
VELOX 1 03 Mar 23:03:34 23:06:42 18° 268° (W) 23:09:42 145.980
HUMSAT D 03 Mar 23:03:49 23:05:30 12° 271° (W) 23:06:55 437.325/437.525
NANOSAT C BR1 03 Mar 23:04:28 23:08:43 84° 103° (ESE) 23:12:55 145.865
RS-15 03 Mar 23:17:45 23:28:40 89° 121° (ESE) 23:39:47 29.354- 29.394
TISAT 1 03 Mar 23:19:19 23:23:34 71° 75° (ENE) 23:27:51 437.305
SPROUT 03 Mar 23:19:42 23:24:02 79° 76° (ENE) 23:28:23 437.525
ESTCUBE 1 03 Mar 23:23:05 23:26:43 23° 267° (W) 23:30:18 437.505/2401.250
SWISSCUBE 03 Mar 23:31:59 23:35:10 18° 65° (ENE) 23:38:30 437.505
UNISAT 6 03 Mar 23:33:18 23:36:56 26° 290° (WNW) 23:40:32 437.425
PHONESAT 2.4 03 Mar 23:36:18 23:37:44 12° 214° (SW) 23:39:02 2401.200-2431.200
QB50P1 03 Mar 23:37:52 23:41:51 40° 288° (WNW) 23:45:47 145.935-145.965
BEESAT 03 Mar 23:40:07 23:43:31 20° 66° (ENE) 23:47:04 436.000
BUGSAT 1 03 Mar 23:41:47 23:45:49 48° 287° (WNW) 23:49:45 437.445
QB50P2 03 Mar 23:42:14 23:46:08 35° 289° (WNW) 23:49:57 145.880/145.840
SO-50 03 Mar 23:46:33 23:47:19 10° 108° (ESE) 23:48:23 436.795
DANDE 03 Mar 23:55:31 00:02:24 88° 284° (WNW) 00:07:31 436.750
DUCHIFAT 1 03 Mar 23:56:30 00:00:03 26° 291° (WNW) 00:03:31 145.980
TIGRISAT 03 Mar 23:58:39 00:01:17 16° 294° (WNW) 00:03:45 435.000
ITUPSAT 1 04 Mar 00:07:12 00:11:33 36° 70° (ENE) 00:15:57 437.325
ANTELSAT 04 Mar 00:14:14 00:15:28 11° 296° (WNW) 00:16:28 437.575/2403.000
POPSAT HIP 1 04 Mar 00:18:53 00:21:30 16° 294° (WNW) 00:23:58 437.405
CUSAT 1 04 Mar 00:18:59 00:24:53 43° 282° (WNW) 00:29:21 437.405
POLYITAN 1 04 Mar 00:19:03 00:21:38 16° 294° (WNW) 00:24:03 437.675
BEESAT 3 04 Mar 00:19:41 00:22:09 15° 42° (NE) 00:24:43 437.485
GONETS M04 04 Mar 00:25:18 00:28:13 11° 307° (NW) 00:30:27
BEESAT 2 04 Mar 00:46:07 00:49:25 22° 46° (NE) 00:52:44 435.950
AIST 2 04 Mar 00:51:41 00:53:29 12° 38° (NE) 00:55:25 435.215
KKS-1 04 Mar 01:07:13 01:11:01 29° 69° (ENE) 01:14:55 437.445
SWISSCUBE 04 Mar 01:08:04 01:12:41 49° 260° (W) 01:17:22 437.505
STARS 04 Mar 01:11:11 01:14:26 21° 67° (ENE) 01:17:47 437.465
BEESAT 04 Mar 01:16:33 01:21:06 44° 262° (W) 01:25:41 436.000
Oscar 19 04 Mar 01:16:40 01:21:43 56° 100° (E) 01:26:46 437.125/150
ITAMSAT 1 04 Mar 01:18:55 01:22:32 19° 91° (E) 01:26:19 435.822/435.867
SO-50 04 Mar 01:22:37 01:27:13 83° 303° (WNW) 01:32:00 436.795
RS-15 04 Mar 01:33:11 01:42:42 32° 328° (NNW) 01:52:16 29.354- 29.394
DANDE 04 Mar 01:43:54 01:46:01 11° 292° (WNW) 01:47:37 436.750
ITUPSAT 1 04 Mar 01:45:41 01:49:34 24° 266° (W) 01:53:22 437.325
BEESAT 3 04 Mar 01:56:36 02:00:43 64° 240° (WSW) 02:04:43 437.485
YUBILEINY 04 Mar 02:21:54 02:30:19 47° 74° (ENE) 02:38:46 435.215
BEESAT 2 04 Mar 02:23:53 02:27:44 37° 244° (WSW) 02:31:31 435.950
AIST 2 04 Mar 02:28:31 02:32:48 88° 56° (NE) 02:37:01 435.215
AO-7 04 Mar 02:29:31 02:33:21 14° 86° (E) 02:37:48 29.400- 29.500
MOZHAYETS 4 04 Mar 02:31:06 02:32:16 11° 63° (ENE) 02:33:42
Gurwin Techsat 1B 04 Mar 02:37:19 02:42:41 81° 102° (ESE) 02:48:00 435.225
KKS-1 04 Mar 02:43:52 02:47:40 26° 265° (W) 02:51:24 437.445
STARS 04 Mar 02:46:36 02:50:42 36° 262° (W) 02:54:49 437.465
Oscar 19 04 Mar 02:57:10 03:00:41 18° 296° (WNW) 03:04:02 437.125/150
ITAMSAT 1 04 Mar 02:57:20 03:02:24 51° 289° (WNW) 03:07:24 435.822/435.867
HORYU 2 04 Mar 03:01:58 03:06:05 36° 97° (E) 03:10:14 437.375
M-CUBED/EXP-1 PRIME 04 Mar 03:03:40 03:06:50 43° 68° (ENE) 03:10:08 437.505
AUBIESAT-1 04 Mar 03:04:30 03:07:36 38° 68° (ENE) 03:10:52 437.475
SO-50 04 Mar 03:06:02 03:08:36 14° 324° (NW) 03:11:05 436.795
